Meteo pe oră la Satif

Astăzi, 3 Decembrie, Joi

Timp Temperatura Precipitaţii Vânt Presiune Umiditate
00:00 +3°C° 0 mm 3 m/s 667 mmHg 89%
01:00 +3°C° 0.2 mm 3 m/s 667 mmHg 88%
02:00 +3°C° 0.2 mm 3 m/s 667 mmHg 87%
03:00 +3°C° 0.2 mm 3 m/s 667 mmHg 85%
04:00 +3°C° 0.1 mm 3 m/s 667 mmHg 86%
05:00 +4°C° 0.1 mm 2 m/s 667 mmHg 86%
06:00 +4°C° 0 mm 2 m/s 668 mmHg 87%
07:00 +5°C° 0.1 mm 2 m/s 668 mmHg 83%
08:00 +5°C° 0.1 mm 2 m/s 668 mmHg 78%
09:00 +6°C° 0.1 mm 2 m/s 669 mmHg 74%
10:00 +6°C° 0 mm 2 m/s 669 mmHg 69%
11:00 +8°C° 0 mm 1 m/s 669 mmHg 65%
12:00 +9°C° 0 mm 1 m/s 668 mmHg 60%
13:00 +8°C° 0 mm 2 m/s 668 mmHg 57%
14:00 +8°C° 0 mm 2 m/s 667 mmHg 54%
15:00 +9°C° 0 mm 2 m/s 667 mmHg 51%
16:00 +8°C° 0 mm 2 m/s 667 mmHg 57%
17:00 +7°C° 0 mm 3 m/s 666 mmHg 63%
18:00 +5°C° 0 mm 3 m/s 666 mmHg 69%
19:00 +4°C° 0 mm 3 m/s 666 mmHg 69%
20:00 +5°C° 0 mm 2 m/s 666 mmHg 70%
21:00 +4°C° 0 mm 2 m/s 665 mmHg 71%
22:00 +3°C° 0 mm 3 m/s 665 mmHg 70%
23:00 +3°C° 0 mm 3 m/s 664 mmHg 70%

Mâine, 4 Decembrie, Vineri

Timp Temperatura Precipitaţii Vânt Presiune Umiditate
00:00 +3°C° 0 mm 4 m/s 664 mmHg 69%
01:00 +3°C° 0 mm 4 m/s 663 mmHg 69%
02:00 +2°C° 0 mm 5 m/s 663 mmHg 69%
03:00 +2°C° 0 mm 5 m/s 662 mmHg 68%
04:00 +2°C° 0 mm 5 m/s 662 mmHg 70%
05:00 +2°C° 0 mm 5 m/s 662 mmHg 71%
06:00 +2°C° 0 mm 5 m/s 662 mmHg 73%
07:00 +3°C° 0 mm 6 m/s 662 mmHg 71%
08:00 +4°C° 0 mm 7 m/s 663 mmHg 70%
09:00 +5°C° 0 mm 8 m/s 663 mmHg 68%
10:00 +6°C° 0 mm 9 m/s 663 mmHg 66%
11:00 +7°C° 0 mm 9 m/s 662 mmHg 63%
12:00 +7°C° 0 mm 10 m/s 662 mmHg 61%
13:00 +7°C° 0 mm 9 m/s 662 mmHg 61%
14:00 +7°C° 0 mm 9 m/s 661 mmHg 62%
15:00 +7°C° 0 mm 8 m/s 661 mmHg 62%
16:00 +6°C° 0 mm 8 m/s 661 mmHg 65%
17:00 +6°C° 0 mm 7 m/s 660 mmHg 68%
18:00 +5°C° 0 mm 6 m/s 660 mmHg 71%
19:00 +5°C° 0 mm 6 m/s 660 mmHg 71%
20:00 +5°C° 0 mm 6 m/s 660 mmHg 71%
21:00 +4°C° 0 mm 6 m/s 659 mmHg 70%
22:00 +4°C° 0 mm 7 m/s 659 mmHg 70%
23:00 +4°C° 0 mm 7 m/s 659 mmHg 70%

Poimâine, 5 Decembrie, Sâmbătă

Timp Temperatura Precipitaţii Vânt Presiune Umiditate
00:00 +4°C° 0 mm 8 m/s 658 mmHg 70%
01:00 +4°C° 0.1 mm 7 m/s 658 mmHg 71%
02:00 +4°C° 0.1 mm 6 m/s 658 mmHg 72%
03:00 +4°C° 0.1 mm 6 m/s 658 mmHg 74%
04:00 +4°C° 0.6 mm 6 m/s 658 mmHg 76%
05:00 +3°C° 0.6 mm 7 m/s 657 mmHg 78%
06:00 +3°C° 0.6 mm 7 m/s 657 mmHg 80%
07:00 +2°C° 0.1 mm 8 m/s 658 mmHg 77%
08:00 +2°C° 0.1 mm 9 m/s 659 mmHg 74%
09:00 +2°C° 0.1 mm 9 m/s 659 mmHg 71%
10:00 +2°C° 0 mm 9 m/s 659 mmHg 69%
11:00 +2°C° 0 mm 9 m/s 659 mmHg 66%
12:00 +2°C° 0 mm 9 m/s 659 mmHg 64%
13:00 +2°C° 0.1 mm 8 m/s 659 mmHg 61%
14:00 +2°C° 0.1 mm 8 m/s 660 mmHg 59%
15:00 +3°C° 0.1 mm 7 m/s 660 mmHg 56%
16:00 +2°C° 0 mm 6 m/s 660 mmHg 61%
17:00 +1°C° 0 mm 5 m/s 660 mmHg 66%
18:00 0°C° 0 mm 5 m/s 660 mmHg 71%
19:00 0°C° 0 mm 4 m/s 661 mmHg 74%
20:00 0°C° 0 mm 4 m/s 661 mmHg 76%
21:00 -1°C° 0 mm 4 m/s 661 mmHg 78%
22:00 -1°C° 0 mm 4 m/s 661 mmHg 79%
23:00 0°C° 0 mm 3 m/s 661 mmHg 80%

6 Decembrie, Duminică

Timp Temperatura Precipitaţii Vânt Presiune Umiditate
00:00 -1°C° 0 mm 3 m/s 661 mmHg 81%
01:00 -2°C° 0 mm 4 m/s 661 mmHg 80%
02:00 -2°C° 0 mm 4 m/s 661 mmHg 80%
03:00 -2°C° 0 mm 4 m/s 661 mmHg 79%
04:00 -2°C° 0 mm 4 m/s 661 mmHg 80%
05:00 -2°C° 0 mm 4 m/s 661 mmHg 82%
06:00 -2°C° 0 mm 4 m/s 661 mmHg 84%
07:00 -1°C° 0 mm 4 m/s 662 mmHg 80%
08:00 0°C° 0 mm 4 m/s 662 mmHg 76%
09:00 +3°C° 0 mm 4 m/s 663 mmHg 72%
10:00 +2°C° 0 mm 5 m/s 663 mmHg 70%
11:00 +2°C° 0 mm 6 m/s 662 mmHg 68%
12:00 +3°C° 0 mm 7 m/s 662 mmHg 66%
13:00 +2°C° 0.1 mm 7 m/s 662 mmHg 69%
14:00 +2°C° 0.1 mm 6 m/s 662 mmHg 72%
15:00 +2°C° 0.1 mm 6 m/s 662 mmHg 75%
16:00 +1°C° 0 mm 5 m/s 663 mmHg 77%
17:00 0°C° 0 mm 4 m/s 663 mmHg 78%
18:00 0°C° 0 mm 4 m/s 663 mmHg 80%
19:00 0°C° 0 mm 4 m/s 664 mmHg 81%
20:00 0°C° 0 mm 4 m/s 664 mmHg 83%
21:00 0°C° 0 mm 4 m/s 664 mmHg 84%
22:00 0°C° 0 mm 4 m/s 664 mmHg 84%
23:00 0°C° 0 mm 4 m/s 665 mmHg 85%

7 Decembrie, Luni

Timp Temperatura Precipitaţii Vânt Presiune Umiditate
00:00 -1°C° 0 mm 4 m/s 665 mmHg 86%
01:00 -1°C° 0 mm 4 m/s 665 mmHg 86%
02:00 -1°C° 0 mm 4 m/s 665 mmHg 87%
03:00 -1°C° 0 mm 4 m/s 665 mmHg 87%
04:00 -1°C° 0 mm 4 m/s 666 mmHg 88%
05:00 0°C° 0 mm 3 m/s 666 mmHg 89%
06:00 0°C° 0 mm 3 m/s 666 mmHg 90%
07:00 0°C° 0 mm 4 m/s 667 mmHg 84%
08:00 +1°C° 0 mm 4 m/s 667 mmHg 79%
09:00 +2°C° 0 mm 5 m/s 668 mmHg 73%
10:00 +3°C° 0 mm 5 m/s 668 mmHg 70%
11:00 +4°C° 0 mm 6 m/s 668 mmHg 66%
12:00 +4°C° 0 mm 6 m/s 668 mmHg 62%
13:00 +4°C° 0 mm 6 m/s 668 mmHg 61%
14:00 +5°C° 0 mm 5 m/s 668 mmHg 61%
15:00 +5°C° 0 mm 5 m/s 668 mmHg 60%
16:00 +3°C° 0 mm 5 m/s 668 mmHg 63%
17:00 +3°C° 0 mm 4 m/s 668 mmHg 67%
18:00 +3°C° 0 mm 4 m/s 668 mmHg 70%
19:00 +1°C° 0 mm 4 m/s 668 mmHg 72%
20:00 +1°C° 0 mm 4 m/s 668 mmHg 74%
21:00 +1°C° 0 mm 4 m/s 668 mmHg 76%
22:00 +1°C° 0 mm 4 m/s 668 mmHg 78%
23:00 +1°C° 0 mm 4 m/s 668 mmHg 79%

8 Decembrie, Marţi

Timp Temperatura Precipitaţii Vânt Presiune Umiditate
00:00 +1°C° 0 mm 4 m/s 667 mmHg 81%
01:00 +1°C° 0 mm 4 m/s 667 mmHg 83%
02:00 +1°C° 0 mm 4 m/s 667 mmHg 85%
03:00 +1°C° 0 mm 5 m/s 666 mmHg 88%
04:00 +2°C° 0 mm 5 m/s 666 mmHg 88%
05:00 +2°C° 0 mm 5 m/s 666 mmHg 88%
06:00 +3°C° 0 mm 6 m/s 666 mmHg 88%
07:00 +3°C° 0 mm 6 m/s 666 mmHg 85%
08:00 +4°C° 0 mm 7 m/s 667 mmHg 82%
09:00 +4°C° 0 mm 7 m/s 667 mmHg 79%
10:00 +5°C° 0 mm 8 m/s 667 mmHg 76%
11:00 +6°C° 0 mm 8 m/s 667 mmHg 74%
12:00 +6°C° 0 mm 8 m/s 667 mmHg 72%
13:00 +7°C° 0.1 mm 8 m/s 666 mmHg 71%
14:00 +7°C° 0.1 mm 8 m/s 666 mmHg 69%
15:00 +7°C° 0.1 mm 8 m/s 666 mmHg 68%
16:00 +6°C° 0.1 mm 8 m/s 665 mmHg 73%
17:00 +6°C° 0.1 mm 7 m/s 665 mmHg 78%
18:00 +5°C° 0.1 mm 7 m/s 665 mmHg 83%
19:00 +5°C° 0.1 mm 7 m/s 665 mmHg 83%
20:00 +4°C° 0.1 mm 7 m/s 665 mmHg 84%
21:00 +4°C° 0.1 mm 7 m/s 665 mmHg 85%
22:00 +4°C° 0.6 mm 6 m/s 665 mmHg 86%
23:00 +5°C° 0.6 mm 5 m/s 665 mmHg 87%
Arată mai mult

Formular de consimțământ

Meteoprog și furnizorii noștri de servicii pot stoca și accesa date personale, precum cookies, identificatori de dispozitiv sau alte tehnologii similare pe dispozitivul dumneavoastră și procesa astfel de date pentru a personaliza conținutul și reclamele, dar și pentru a oferi caracteristici de social media și pentru a analiza traficul.

  • Stocarea și/sau accesarea informațiilor pe dispozitivul dumneavoastră

    Cookies, identificatori de dispozitiv sau alte informații pot fi stocate sau accesate pe dispozitiv în scopurile indicate mai sus.

  • Reclame și conținut personalizat, evaluarea reclamelor și a conținutului, informații despre audiențe și dezvoltarea produselor

    Reclamele și conținutul pot fi personalizate pe baza unui profil. Pot fi adăugate date suplimentare pentru a personaliza mai bine reclamele și conținutul. Performanța reclamelor și conținutului poate fi măsurată. Pot fi obținute informații despre utilizatorii care au văzut reclamele și conținutul. Aceste date pot fi utilizate pentru a dezvolta sau îmbunătăți experiența utilizatorilor, sistemele și software-ul.

Dând clic pe ‘Sunt de acord’, permiteți utilizarea cookie-urilor menționate, a identificatorilor de dispozitiv, balizelor web sau altor tehnologii similare. Setările pot fi modificate din browser-ul dispozitivului dumneavoastră.

În anumite scopuri, interesele legitime pot prima asupra consimțământului. Puteți citi mai multe informații în acest sens în Politica privind Confidențialitatea Datelor și Cookie.